[[{"header":{"parameterUnit":"m.s-1","parameterCategory":1,"la1":30.2991,"la2":30.254,"lo1":-89.0895,"lo2":-89.0444,"dy":0.0017,"dx":0.0017,"nx":28,"ny":28,"refTime":"2023-10-09T03:00:00:Z","depth":0,"parameterNumber":2,"parameterNumberName":"U-component_of_WINDS"},"data":[0,0,0,0,0,0,0,0,0,0,0,0,0,0,0,0,0,0,0,0,0,0,0,0,0,0,0,0,0,0,0,0,0,0,0,0,0,0,0,0,0,0,0,0,0,0,0,0,0,0,0,0,0,0,0,0,0,0,3.6126,3.6127,0,3.6219,3.622,3.6221,3.6187,3.6185,3.6182,3.6181,3.6272,3.6276,3.6281,0,0,0,0,0,0,0,0,0,0,0,0,0,3.5912,3.5916,3.6126,3.6127,3.6128,3.6219,3.622,3.6221,3.6187,3.6185,3.6182,3.618,3.6271,3.6276,3.6281,0,0,0,0,0,0,0,0,0,0,0,0,0,3.6005,3.5918,3.6125,3.6122,3.6123,3.6218,3.622,3.6221,3.6188,3.6184,3.6181,3.6178,3.6269,3.6275,3.6282,3.6385,0,0,3.6302,3.6305,0,0,0,0,0,0,0,0,3.6,3.6013,3.6121,3.6122,3.6123,3.6188,3.6178,3.6276,3.6188,3.6163,3.618,3.6177,3.6246,3.6255,3.6279,3.639,3.6394,3.6303,3.6307,3.6309,3.6311,0,0,0,0,0,0,0,3.5993,3.6009,3.6162,3.6123,3.6124,3.6114,3.6123,3.6197,3.6221,3.6165,3.6163,3.6174,3.6246,3.6273,3.6281,3.6395,3.6302,3.6308,3.6312,3.6315,3.659,3.6593,0,0,0,0,0,0,3.5987,3.6004,3.6159,3.6165,3.6053,3.612,3.6131,3.617,3.622,3.6225,3.6177,3.6172,3.6263,3.6273,3.6284,3.6404,3.6309,3.6316,3.6319,3.6586,3.659,3.6594,0,0,0,0,0,0,3.5983,3.6001,3.6156,3.6084,3.6103,3.6127,3.6172,3.6174,3.62,3.6229,3.6233,3.62,3.6261,3.6275,3.6359,3.6407,3.6319,3.6325,3.6582,3.6588,3.6592,3.6649,0,0,0,0,0,0,3.5977,3.6,3.6041,3.6085,3.6107,3.6232,3.6175,3.6178,3.6212,3.6207,3.6252,3.6256,3.6259,3.635,3.6366,3.6415,3.633,3.6578,3.6585,3.6591,3.6642,3.6655,3.6665,0,0,0,0,0,3.5969,3.6054,3.6044,3.6063,3.6159,3.6235,3.6247,3.625,3.6216,3.6256,3.6274,3.6254,3.64,3.6359,3.6377,3.6428,3.6575,3.6583,3.659,3.6637,3.6652,3.6665,0,0,0,0,0,0,3.6015,3.606,3.6049,3.6151,3.6189,3.6229,3.628,3.6267,3.6315,3.6308,3.6309,3.6319,3.6406,3.6426,3.6379,3.6528,3.6482,3.6494,3.6512,3.6526,3.6538,3.6529,3.6335,0,0,0,0,0,3.6037,3.6096,3.6132,3.6218,3.6238,3.6256,3.6289,3.6288,3.6327,3.6343,3.6368,3.6405,3.6459,3.6494,3.6546,3.6646,3.6652,3.669,3.6701,3.671,3.6719,3.6769,3.6784,3.6619,3.6619,3.6619,0,0,3.6083,3.6115,3.6152,3.6228,3.6257,3.6316,3.6269,3.6335,3.6377,3.6353,3.6433,3.6452,3.6494,3.6586,3.6628,3.6605,3.6767,3.672,3.6727,3.6731,3.6778,3.6794,3.6808,3.6624,3.6623,3.6622,0,0,3.6196,3.6228,3.63,3.6331,3.6376,3.6387,3.6404,3.6446,3.6457,3.6539,3.652,3.657,3.6664,3.6693,3.672,3.684,3.6822,3.6857,3.6916,3.6964,3.6977,3.6988,3.7027,3.7041,3.6866,3.6866,3.6867,0,3.6246,3.6336,3.6339,3.6405,3.6437,3.6418,3.6489,3.6518,3.6578,3.6599,3.6574,3.6688,3.6715,3.6811,3.684,3.6864,3.6881,3.6851,3.6975,3.6987,3.6997,3.7034,3.7049,3.687,3.687,3.6869,3.6869,0,3.6393,3.6455,3.6509,3.6566,3.6604,3.6673,3.6684,3.6722,3.6717,3.673,3.681,3.6842,3.6897,3.692,3.6917,3.7015,3.6999,3.6975,3.6928,3.7017,3.7051,3.7065,3.6875,3.6874,3.6873,3.6872,0,0,3.6538,3.6595,3.6614,3.6637,3.6685,3.6731,3.6797,3.6852,3.6882,3.6924,3.6976,3.7055,3.7031,3.7062,3.7061,3.7104,3.7191,3.7074,3.7075,3.7091,3.7296,3.7311,3.7327,3.7181,3.7184,3.7186,3.7291,0,3.6651,3.6768,3.6771,3.6877,3.6931,3.6912,3.6969,3.7002,3.7016,3.7062,3.7076,3.7129,3.7097,3.7115,3.7157,3.7172,3.7232,3.7165,3.7226,3.7228,3.7213,3.7346,3.7363,3.7461,3.7304,3.7307,3.7309,0,3.6799,3.6844,3.6954,3.699,3.7013,3.7064,3.7112,3.7158,3.7194,3.72,3.7233,3.7225,3.7289,3.7242,3.7327,3.7282,3.7307,3.7318,3.7322,3.7325,3.7271,3.7349,3.7492,3.7505,3.733,3.7329,3.7327,0,3.6887,3.6976,3.7052,3.7074,3.7119,3.7154,3.7174,3.7207,3.7238,3.728,3.7299,3.7348,3.7373,3.741,3.7414,3.738,3.7498,3.7453,3.7502,3.7501,3.7525,3.7523,3.7671,3.7548,3.7548,3.7547,3.7547,0,3.7011,3.7079,3.7092,3.7139,3.7212,3.7215,3.7287,3.7304,3.7333,3.738,3.7368,3.7412,3.7416,3.7461,3.7465,3.7532,3.7545,3.7549,3.7548,3.7548,3.7547,3.7562,3.7554,3.7551,3.7551,3.755,3.7549,0,3.7122,3.7134,3.7215,3.725,3.726,3.7312,3.7341,3.7384,3.7395,3.7455,3.7469,3.7486,3.7537,3.7546,3.7607,3.7609,3.7689,3.7683,3.7676,3.7674,3.7721,3.7715,3.7881,3.7901,3.7768,3.777,3.7771,0,3.7199,3.725,3.7289,3.732,3.7342,3.7393,3.7423,3.7427,3.7459,3.7502,3.7539,3.759,3.763,3.7713,3.7729,3.7775,3.7768,3.7823,3.7774,3.7771,3.7763,3.7759,3.7762,3.7831,3.7832,3.7834,3.7835,0,3.7332,3.7334,3.738,3.7427,3.7465,3.7502,3.7537,3.7563,3.757,3.7607,3.7659,3.7691,3.7752,3.7801,3.7845,3.7863,3.7849,3.785,3.7863,3.7861,3.7853,3.7854,3.7697,3.7845,3.7844,3.7844,3.7843,3.7843,3.7425,3.7468,3.7501,3.7551,3.7578,3.761,3.7651,3.7666,3.771,3.7761,3.776,3.7816,3.7847,3.7906,3.7927,3.7969,3.7951,3.7971,3.7975,3.7979,3.7981,3.785,3.7978,3.7977,3.7977,3.7977,3.7977,0,3.7554,3.7574,3.762,3.7669,3.7707,3.7692,3.7729,3.7761,3.7811,3.7842,3.7881,3.794,3.7986,3.8005,3.805,3.808,3.8074,3.8091,3.8087,3.8091,3.7997,3.798,3.8095,3.8095,3.8095,3.8095,3.8095,3.8095,3.7625,3.7695,3.7701,3.7782,3.7801,3.7857,3.7879,3.7907,3.7931,3.7996,3.8035,3.8047,3.8072,3.8118,3.8159,3.8163,3.8178,3.8197,3.8198,3.811,3.8098,3.8086,3.8069,3.8202,3.8202,3.8287,3.8288,3.8289]},{"header":{"parameterUnit":"m.s-1","parameterCategory":1,"la1":30.2991,"la2":30.254,"lo1":-89.0895,"lo2":-89.0444,"dy":0.0017,"dx":0.0017,"nx":28,"ny":28,"refTime":"2023-10-09T03:00:00:Z","depth":0,"parameterNumber":3,"parameterNumberName":"V-component_of_WINDS"},"data":[0,0,0,0,0,0,0,0,0,0,0,0,0,0,0,0,0,0,0,0,0,0,0,0,0,0,0,0,0,0,0,0,0,0,0,0,0,0,0,0,0,0,0,0,0,0,0,0,0,0,0,0,0,0,0,0,0,0,0.8255,0.8255,0,0.8304,0.8304,0.8305,0.8302,0.8301,0.83,0.83,0.8351,0.8353,0.8355,0,0,0,0,0,0,0,0,0,0,0,0,0,0.8157,0.8159,0.8255,0.8255,0.8256,0.8304,0.8304,0.8305,0.8302,0.8301,0.83,0.8299,0.835,0.8353,0.8355,0,0,0,0,0,0,0,0,0,0,0,0,0,0.8202,0.8159,0.8254,0.826,0.8261,0.8304,0.8304,0.8305,0.8302,0.8301,0.83,0.8299,0.8349,0.8352,0.8355,0.8396,0,0,0.8365,0.8366,0,0,0,0,0,0,0,0,0.82,0.8206,0.8259,0.826,0.8261,0.8296,0.8289,0.8336,0.8302,0.8287,0.83,0.8298,0.8333,0.8338,0.8349,0.8398,0.8401,0.8365,0.8367,0.8368,0.8369,0,0,0,0,0,0,0,0.8196,0.8204,0.8274,0.8259,0.8261,0.826,0.8265,0.8298,0.8315,0.8288,0.8288,0.8294,0.8334,0.8346,0.8351,0.8401,0.8365,0.8368,0.837,0.8371,0.8484,0.8485,0,0,0,0,0,0,0.8192,0.8201,0.8272,0.8276,0.8227,0.8262,0.8268,0.8286,0.8315,0.8319,0.8294,0.8293,0.8342,0.8347,0.8352,0.8401,0.8368,0.8371,0.8373,0.8483,0.8484,0.8486,0,0,0,0,0,0,0.819,0.8198,0.8271,0.8238,0.8247,0.8265,0.8285,0.8287,0.83,0.832,0.8323,0.8304,0.8341,0.8348,0.8385,0.8403,0.8372,0.8375,0.8482,0.8483,0.8485,0.8499,0,0,0,0,0,0,0.8187,0.8198,0.8214,0.8239,0.8249,0.8302,0.8286,0.8289,0.8305,0.8304,0.833,0.8333,0.8341,0.838,0.8388,0.8406,0.8378,0.848,0.8482,0.8485,0.8497,0.8501,0.8504,0,0,0,0,0,0.8184,0.8216,0.8215,0.8223,0.8269,0.8304,0.8309,0.8317,0.8306,0.8322,0.8335,0.8332,0.8399,0.8384,0.8392,0.8412,0.8479,0.8482,0.8484,0.8495,0.85,0.8504,0,0,0,0,0,0,0.8194,0.822,0.8218,0.826,0.8279,0.8303,0.8324,0.8322,0.8346,0.8344,0.8352,0.8358,0.8395,0.8407,0.839,0.8452,0.8438,0.8442,0.8443,0.8448,0.8451,0.8448,0.838,0,0,0,0,0,0.8201,0.8226,0.8248,0.8282,0.8292,0.8306,0.8321,0.8325,0.8346,0.8354,0.837,0.839,0.8415,0.8432,0.8457,0.8498,0.8503,0.8516,0.8519,0.8522,0.8526,0.8547,0.8553,0.8494,0.8494,0.8494,0,0,0.8216,0.8233,0.8249,0.8285,0.83,0.8326,0.8313,0.8341,0.836,0.8359,0.8394,0.8406,0.8429,0.8468,0.8486,0.8479,0.8543,0.8526,0.8528,0.853,0.855,0.8556,0.8561,0.8496,0.8496,0.8496,0,0,0.8256,0.8272,0.8302,0.8318,0.8341,0.835,0.8357,0.838,0.8387,0.8423,0.8421,0.8444,0.8488,0.8504,0.8518,0.8561,0.856,0.8569,0.8589,0.8609,0.8614,0.8618,0.8633,0.8638,0.8573,0.8573,0.8573,0,0.8272,0.8311,0.8318,0.8346,0.8361,0.8359,0.8389,0.8404,0.8434,0.8445,0.8436,0.849,0.8506,0.8547,0.8558,0.8569,0.8577,0.8567,0.8612,0.8617,0.8621,0.8635,0.864,0.8574,0.8574,0.8574,0.8574,0,0.8329,0.8356,0.8377,0.8405,0.8423,0.8452,0.8462,0.8479,0.848,0.849,0.8525,0.8543,0.857,0.858,0.8583,0.8622,0.8617,0.8611,0.8597,0.8627,0.864,0.8646,0.8575,0.8575,0.8575,0.8574,0,0,0.8379,0.8409,0.8417,0.8429,0.8453,0.8474,0.8502,0.8528,0.8542,0.8562,0.8585,0.8621,0.8615,0.8631,0.8635,0.8653,0.8685,0.8644,0.8644,0.865,0.8727,0.8732,0.8738,0.8683,0.8684,0.8685,0.8725,0,0.8422,0.8471,0.8477,0.8521,0.8545,0.8542,0.8567,0.8584,0.8593,0.8614,0.8624,0.8649,0.8639,0.8648,0.8666,0.8677,0.87,0.8674,0.8704,0.8705,0.8699,0.8745,0.8751,0.8788,0.873,0.8731,0.8732,0,0.8479,0.8499,0.8546,0.8565,0.8575,0.8597,0.862,0.8641,0.866,0.8665,0.8681,0.8682,0.871,0.8694,0.8732,0.8714,0.8727,0.8734,0.8735,0.8739,0.8721,0.875,0.88,0.8805,0.8741,0.874,0.8739,0,0.851,0.8549,0.8581,0.8592,0.8616,0.8631,0.8641,0.8659,0.8674,0.8694,0.8703,0.8727,0.8739,0.8757,0.8764,0.8752,0.8801,0.8786,0.8806,0.8806,0.8817,0.8816,0.887,0.8825,0.8825,0.8825,0.8825,0,0.8557,0.8585,0.8595,0.8615,0.8646,0.8652,0.8682,0.8692,0.8707,0.8729,0.8728,0.8748,0.8756,0.8777,0.8782,0.8812,0.8818,0.8822,0.8824,0.8823,0.8822,0.8831,0.8829,0.8826,0.8826,0.8826,0.8825,0,0.8597,0.8605,0.864,0.8659,0.8664,0.8686,0.8702,0.8721,0.8728,0.8755,0.8762,0.8774,0.8798,0.8806,0.8836,0.884,0.8874,0.8874,0.8868,0.8868,0.8887,0.8885,0.8948,0.8957,0.8907,0.8907,0.8907,0,0.8627,0.8648,0.8668,0.8682,0.8693,0.8716,0.873,0.8736,0.8751,0.8772,0.8788,0.8812,0.8832,0.8871,0.8882,0.8904,0.8903,0.8924,0.8907,0.8905,0.8903,0.8902,0.8903,0.8927,0.8928,0.8928,0.8929,0,0.8678,0.868,0.8701,0.8723,0.874,0.8757,0.8774,0.8786,0.8793,0.881,0.8835,0.885,0.8879,0.8902,0.8925,0.8935,0.8933,0.8934,0.8939,0.8939,0.8934,0.8936,0.8876,0.8933,0.8932,0.8932,0.8932,0.8932,0.8713,0.8732,0.8748,0.8771,0.8784,0.8799,0.8817,0.8826,0.8847,0.8871,0.8873,0.8899,0.8915,0.8945,0.8956,0.8976,0.897,0.8978,0.8981,0.8982,0.8983,0.8931,0.898,0.898,0.898,0.898,0.898,0,0.8764,0.8774,0.8795,0.8818,0.8835,0.8831,0.8849,0.8863,0.8886,0.8902,0.892,0.8947,0.897,0.8982,0.9004,0.9017,0.9017,0.9023,0.9022,0.9024,0.8988,0.8981,0.9023,0.9023,0.9023,0.9023,0.9023,0.9023,0.8792,0.8822,0.8827,0.8862,0.8872,0.8897,0.8908,0.8921,0.8934,0.8964,0.8982,0.8989,0.9003,0.9025,0.9045,0.9048,0.9056,0.9063,0.9065,0.9031,0.9027,0.9022,0.9016,0.9064,0.9064,0.9099,0.9099,0.91]}]]